GW5663 Weather Reports


time (UTC)temp
F
wind
direction
speed
knots
gust
knots
rain 1hr
in
rain 24hr
in
rain mn
in
humidity
%
barometer
mb
20260510044927 69 172 1.7 1.7 0.00 0.00 0.00 81 1090.1
20260510044424 68 177 0.0 0.9 0.00 0.00 0.00 82 1090.4
20260510043920 68 176 0.0 0.0 0.00 0.00 0.00 83 1090.1
20260510043416 68 176 0.0 0.0 0.00 0.00 0.00 83 1090.2
20260510042915 69 175 0.0 0.0 0.00 0.00 0.00 82 1090.2
20260510042410 69 175 0.9 1.7 0.00 0.00 0.00 82 1090.1
20260510041906 69 174 0.9 1.7 0.00 0.00 0.00 82 1090.2
20260510041403 68 174 0.0 0.9 0.00 0.00 0.00 83 1090.3
20260510040901 69 174 0.0 0.0 0.00 0.00 0.00 83 1090.3
20260510040358 70 174 0.0 0.0 0.00 0.00 0.00 81 1090.3
20260510035854 70 173 0.0 0.0 0.00 0.00 0.00 79 1090.2
20260510035349 70 173 0.0 0.9 0.00 0.00 0.00 79 1090.0
20260510034845 70 173 0.0 0.0 0.00 0.00 0.00 80 1090.2
20260510034343 70 174 0.0 0.0 0.00 0.00 0.00 80 1090.0
20260510033839 70 174 0.0 0.0 0.00 0.00 0.00 80 1089.9
20260510033336 71 174 0.0 0.0 0.00 0.00 0.00 80 1089.8
20260510032832 71 174 0.0 0.9 0.00 0.00 0.00 79 1089.9
20260510032330 72 174 0.0 0.0 0.00 0.00 0.00 77 1089.8
20260510031825 72 174 0.0 0.0 0.00 0.00 0.00 75 1089.8
20260510031320 73 174 0.9 0.9 0.00 0.00 0.00 74 1089.6
20260510030815 73 174 0.0 0.9 0.00 0.00 0.00 74 1089.5
20260510030312 73 173 0.0 0.9 0.00 0.00 0.00 73 1089.8
20260510025809 73 173 0.0 0.9 0.00 0.00 0.00 73 1089.4
20260510025307 74 173 0.0 0.9 0.00 0.00 0.00 73 1089.6
20260510024803 73 173 0.9 0.9 0.00 0.00 0.00 71 1089.4
20260510024300 74 173 0.0 0.0 0.00 0.00 0.00 72 1089.3
20260510023756 74 173 0.0 0.0 0.00 0.00 0.00 72 1089.5
20260510023253 74 173 0.0 0.0 0.00 0.00 0.00 71 1089.4
20260510022750 75 173 0.0 0.0 0.00 0.00 0.00 69 1089.3
20260510022249 75 173 0.0 0.0 0.00 0.00 0.00 69 1089.2
20260510021749 76 174 1.7 1.7 0.00 0.00 0.00 68 1089.1
20260510021247 76 174 0.9 0.9 0.00 0.00 0.00 67 1089.3
20260510020743 77 174 0.0 0.0 0.00 0.00 0.00 66 1089.1
20260510020242 77 174 1.7 1.7 0.00 0.00 0.00 65 1088.9
20260510015739 77 173 0.0 0.9 0.00 0.00 0.00 65 1088.9
20260510015235 78 174 0.0 0.0 0.00 0.00 0.00 65 1089.0
20260510014730 79 174 0.0 0.0 0.00 0.00 0.00 62 1089.1
20260510014228 79 169 0.9 0.9 0.00 0.00 0.00 60 1088.7
20260510013724 80 177 0.9 1.7 0.00 0.00 0.00 59 1088.5
20260510013219 80 189 0.9 1.7 0.00 0.00 0.00 59 1088.6
20260510012719 80 165 0.9 1.7 0.00 0.00 0.00 59 1088.4
20260510012215 81 160 1.7 2.6 0.00 0.00 0.00 58 1088.2
20260510011715 82 174 0.9 0.9 0.00 0.00 0.00 57 1088.2
20260510011211 83 169 2.6 3.5 0.00 0.00 0.00 55 1088.1
20260510010708 83 173 2.6 3.5 0.00 0.00 0.00 54 1087.9
20260510010204 84 168 1.7 2.6 0.00 0.00 0.00 53 1088.1
20260510005701 84 179 3.5 5.2 0.00 0.00 0.00 51 1088.2
20260510005157 85 179 1.7 1.7 0.00 0.00 0.00 50 1088.2
20260510004655 85 178 1.7 2.6 0.00 0.00 0.00 50 1088.2
20260510004153 85 182 0.9 1.7 0.00 0.00 0.00 49 1088.1
20260510003650 86 167 0.9 0.9 0.00 0.00 0.00 49 1088.1
20260510003146 86 217 1.7 2.6 0.00 0.00 0.00 48 1088.2
20260510002646 86 194 1.7 2.6 0.00 0.00 0.00 48 1088.1
20260510002143 86 197 0.9 1.7 0.00 0.00 0.00 47 1088.0
20260510001640 86 187 1.7 1.7 0.00 0.00 0.00 46 1088.0
20260510001138 87 175 2.6 2.6 0.00 0.00 0.00 45 1088.0
20260510000638 87 200 1.7 1.7 0.00 0.00 0.00 44 1087.7
20260510000137 87 180 2.6 2.6 0.00 0.00 0.00 42 1088.0
20260509235632 87 213 1.7 1.7 0.00 0.00 0.00 43 1087.8
20260509235129 87 203 3.5 3.5 0.00 0.00 0.00 42 1087.9
20260509234625 88 149 0.0 0.9 0.00 0.00 0.00 44 1087.9
20260509234123 88 190 1.7 2.6 0.00 0.00 0.00 44 1087.8
20260509233620 88 156 0.0 0.9 0.00 0.00 0.00 45 1087.9
20260509233118 88 178 2.6 3.5 0.00 0.00 0.00 42 1088.0
20260509232614 87 172 1.7 2.6 0.00 0.00 0.00 43 1088.0
20260509232111 88 192 1.7 3.5 0.00 0.00 0.00 44 1088.0
20260509231608 88 174 1.7 1.7 0.00 0.00 0.00 45 1088.1
20260509231105 87 258 0.9 2.6 0.00 0.00 0.00 45 1088.0
20260509230602 88 163 1.7 2.6 0.00 0.00 0.00 46 1088.0
20260509230059 88 144 2.6 3.5 0.00 0.00 0.00 42 1088.1
20260509225554 89 223 1.7 1.7 0.00 0.00 0.00 45 1088.2
20260509225050 88 203 2.6 3.5 0.00 0.00 0.00 48 1088.4
20260509224546 88 176 2.6 3.5 0.00 0.00 0.00 48 1088.1
20260509224043 87 192 3.5 3.5 0.00 0.00 0.00 50 1088.0
20260509223540 87 143 3.5 5.2 0.00 0.00 0.00 49 1088.1
20260509223038 87 148 2.6 3.5 0.00 0.00 0.00 49 1088.0
20260509222533 87 137 0.9 1.7 0.00 0.00 0.00 50 1088.3
20260509222029 88 199 2.6 3.5 0.00 0.00 0.00 50 1088.2
20260509221525 88 116 1.7 2.6 0.00 0.00 0.00 50 1088.3
20260509221021 88 196 0.0 0.9 0.00 0.00 0.00 52 1088.4
20260509220518 89 249 1.7 1.7 0.00 0.00 0.00 47 1088.4
20260509220014 88 263 0.0 0.9 0.00 0.00 0.00 48 1088.4
20260509215509 87 231 0.9 0.9 0.00 0.00 0.00 51 1088.7
20260509215007 87 214 2.6 2.6 0.00 0.00 0.00 50 1088.5
20260509214504 87 208 2.6 3.5 0.00 0.00 0.00 53 1088.5
20260509214001 86 135 1.7 1.7 0.00 0.00 0.00 53 1088.7
20260509213457 86 149 4.3 5.2 0.00 0.00 0.00 53 1088.9
20260509212954 86 218 1.7 2.6 0.00 0.00 0.00 52 1088.7
20260509212451 87 215 4.3 5.2 0.00 0.00 0.00 51 1089.0
20260509211947 87 201 3.5 5.2 0.00 0.00 0.00 55 1088.9
20260509211443 86 233 0.9 1.7 0.00 0.00 0.00 57 1088.7
20260509210940 85 101 1.7 2.6 0.00 0.00 0.00 57 1089.0
20260509210437 86 217 5.2 7.0 0.00 0.00 0.00 54 1089.2
20260509205932 86 223 2.6 2.6 0.00 0.00 0.00 55 1089.2
20260509205427 86 252 3.5 3.5 0.00 0.00 0.00 55 1089.3
20260509204923 86 187 3.5 5.2 0.00 0.00 0.00 57 1089.5
20260509204419 86 196 1.7 2.6 0.00 0.00 0.00 58 1089.5
20260509203916 86 281 1.7 3.5 0.00 0.00 0.00 57 1089.8
20260509203412 86 236 1.7 2.6 0.00 0.00 0.00 57 1089.7
20260509202910 85 276 2.6 2.6 0.00 0.00 0.00 57 1089.6
20260509202405 86 243 3.5 5.2 0.00 0.00 0.00 56 1089.7
20260509201901 84 270 2.6 3.5 0.00 0.00 0.00 59 1090.1
20260509201356 84 177 3.5 5.2 0.00 0.00 0.00 59 1090.0
20260509200854 84 231 0.9 1.7 0.00 0.00 0.00 61 1090.1
20260509200354 85 184 3.5 3.5 0.00 0.00 0.00 57 1090.1
20260509195851 83 159 1.7 1.7 0.00 0.00 0.00 60 1090.1
20260509195351 83 257 2.6 3.5 0.00 0.00 0.00 62 1090.2
20260509194851 84 239 3.5 5.2 0.00 0.00 0.00 60 1090.2
20260509194347 83 190 6.1 7.8 0.00 0.00 0.00 63 1090.0
20260509193844 83 235 1.7 2.6 0.00 0.00 0.00 64 1090.4
20260509193344 83 189 2.6 3.5 0.00 0.00 0.00 64 1090.3
20260509192840 83 197 4.3 6.1 0.00 0.00 0.00 61 1090.4
20260509192336 82 183 3.5 5.2 0.00 0.00 0.00 62 1090.3
20260509191832 82 255 5.2 6.1 0.00 0.00 0.00 60 1090.9
20260509191327 82 278 5.2 7.0 0.00 0.00 0.00 64 1090.9
20260509190824 82 205 2.6 3.5 0.00 0.00 0.00 64 1090.9
20260509190321 82 233 1.7 2.6 0.00 0.00 0.00 65 1091.1
20260509185818 82 255 3.5 3.5 0.00 0.00 0.00 66 1091.1
20260509185314 81 233 3.5 3.5 0.00 0.00 0.00 66 1091.0
20260509184812 81 226 1.7 2.6 0.00 0.00 0.00 67 1091.1
20260509184309 81 143 4.3 6.1 0.00 0.00 0.00 70 1091.1
20260509183806 81 256 0.9 1.7 0.00 0.00 0.00 69 1091.0
20260509183301 80 199 3.5 3.5 0.00 0.00 0.00 69 1091.3
20260509182756 80 259 2.6 3.5 0.00 0.00 0.00 68 1091.4
20260509182254 80 173 1.7 2.6 0.00 0.00 0.00 70 1091.4
20260509181751 80 149 2.6 3.5 0.00 0.00 0.00 70 1091.6
20260509181249 80 258 2.6 3.5 0.00 0.00 0.00 69 1091.3
20260509180746 80 160 2.6 3.5 0.00 0.00 0.00 68 1091.8
20260509180242 80 218 1.7 1.7 0.00 0.00 0.00 72 1091.6
20260509175738 78 180 2.6 2.6 0.00 0.00 0.00 74 1091.8
20260509175235 79 136 2.6 5.2 0.00 0.00 0.00 73 1092.3
20260509174731 79 208 1.7 1.7 0.00 0.00 0.00 76 1091.8
20260509174226 78 263 1.7 2.6 0.00 0.00 0.00 75 1092.4
20260509173723 78 284 2.6 3.5 0.00 0.00 0.00 75 1092.3
20260509173219 78 193 1.7 1.7 0.00 0.00 0.00 77 1092.3
20260509172715 77 173 5.2 7.0 0.00 0.00 0.00 77 1092.0
20260509172211 77 222 1.7 2.6 0.00 0.00 0.00 80 1092.3
20260509171707 76 173 1.7 2.6 0.00 0.00 0.00 81 1092.2
20260509171203 76 196 3.5 5.2 0.00 0.00 0.00 81 1091.9
20260509170700 76 174 1.7 1.7 0.00 0.00 0.00 82 1091.7
20260509170156 75 151 0.9 1.7 0.00 0.00 0.00 84 1092.0
20260509165655 75 262 3.5 5.2 0.00 0.00 0.00 84 1091.9
20260509165150 74 176 3.5 5.2 0.00 0.00 0.00 85 1091.9
20260509164646 74 164 4.3 6.1 0.00 0.00 0.00 83 1092.0
20260509164142 73 255 2.6 5.2 0.00 0.00 0.00 86 1091.8
20260509163640 72 176 1.7 1.7 0.00 0.00 0.00 87 1092.3
20260509163135 72 196 3.5 5.2 0.00 0.00 0.00 88 1092.4
20260509162633 72 191 2.6 3.5 0.00 0.00 0.00 87 1092.2
20260509162129 71 231 2.6 2.6 0.00 0.00 0.00 89 1092.2
20260509161625 70 205 1.7 2.6 0.00 0.00 0.00 91 1092.3
20260509161120 69 195 3.5 5.2 0.00 0.00 0.00 96 1092.4
20260509160616 67 193 0.9 1.7 0.00 0.00 0.00 99 1092.5
20260509160112 66 226 1.7 1.7 0.00 0.00 0.00 99 1092.4
20260509155608 66 233 1.7 2.6 0.00 0.00 0.00 99 1092.5
20260509155105 65 223 0.9 1.7 0.00 0.00 0.00 99 1092.2
20260509154600 65 176 3.5 3.5 0.00 0.00 0.00 99 1092.6
20260509154058 64 190 0.9 1.7 0.00 0.00 0.00 99 1092.6
20260509153555 65 188 1.7 1.7 0.00 0.00 0.00 99 1092.6
20260509153052 64 238 1.7 1.7 0.00 0.00 0.00 99 1092.6
20260509152548 64 178 1.7 1.7 0.00 0.00 0.00 99 1092.6
20260509152045 64 223 0.0 0.9 0.00 0.00 0.00 99 1092.6
20260509151541 64 218 0.9 0.9 0.00 0.00 0.00 99 1092.7
20260509151039 63 178 1.7 1.7 0.00 0.00 0.00 99 1092.9
20260509150536 63 194 0.9 0.9 0.00 0.00 0.00 99 1092.8
20260509150035 63 149 0.0 0.0 0.00 0.00 0.00 99 1092.9
20260509145530 63 149 0.0 0.0 0.00 0.00 0.00 99 1093.1
20260509145025 62 196 0.9 1.7 0.00 0.00 0.00 99 1092.7
20260509144522 62 171 1.7 2.6 0.00 0.00 0.00 99 1093.0
20260509144020 62 230 0.0 0.0 0.00 0.00 0.00 99 1092.8
20260509143516 62 193 1.7 1.7 0.00 0.00 0.00 99 1092.7
20260509143015 62 178 2.6 2.6 0.00 0.00 0.00 99 1092.7
20260509142510 62 229 3.5 3.5 0.00 0.00 0.00 99 1092.6
20260509142005 63 223 0.9 1.7 0.00 0.00 0.00 99 1092.5
20260509141502 63 201 1.7 2.6 0.00 0.00 0.00 99 1092.4
20260509140959 62 161 1.7 2.6 0.00 0.00 0.00 99 1092.5
20260509140455 63 217 1.7 2.6 0.00 0.00 0.00 99 1092.2
20260509135954 62 170 1.7 1.7 0.00 0.00 0.00 99 1092.3
20260509135450 62 179 4.3 5.2 0.00 0.00 0.00 99 1092.3
20260509134948 62 139 2.6 3.5 0.00 0.00 0.00 99 1092.0
20260509134445 62 150 3.5 5.2 0.00 0.00 0.00 99 1092.0
20260509133943 62 168 5.2 6.1 0.00 0.00 0.00 99 1092.3
20260509133439 61 158 1.7 2.6 0.00 0.00 0.00 99 1092.0
20260509132937 61 186 0.0 0.0 0.00 0.00 0.00 99 1091.7
20260509132435 61 198 0.9 0.9 0.00 0.00 0.00 99 1091.9
20260509131932 61 173 0.0 0.0 0.00 0.00 0.00 99 1091.7
20260509131429 60 171 1.7 2.6 0.00 0.00 0.00 99 1091.7
20260509130926 60 137 0.9 1.7 0.00 0.00 0.00 99 1091.7
20260509130421 60 154 0.0 0.9 0.00 0.00 0.00 99 1091.8
20260509125918 60 193 1.7 3.5 0.00 0.00 0.00 99 1091.4
20260509125415 60 172 3.5 3.5 0.00 0.00 0.00 99 1091.4
20260509124911 60 171 1.7 2.6 0.00 0.00 0.00 99 1091.5
20260509124408 60 181 3.5 3.5 0.00 0.00 0.00 99 1091.4
20260509123906 60 177 2.6 3.5 0.00 0.00 0.00 99 1091.3
20260509123403 60 181 5.2 6.1 0.00 0.00 0.00 99 1091.3
20260509122858 60 158 1.7 1.7 0.00 0.00 0.00 99 1091.3
20260509122355 60 164 3.5 3.5 0.00 0.00 0.00 99 1091.2
20260509121852 60 159 0.0 0.0 0.00 0.00 0.00 99 1091.3
20260509121349 60 169 0.9 1.7 0.00 0.00 0.00 99 1091.4
20260509120848 59 174 1.7 1.7 0.00 0.00 0.00 99 1091.3
20260509120345 59 178 1.7 1.7 0.00 0.00 0.00 99 1091.4
20260509115843 59 188 0.0 0.0 0.00 0.00 0.00 99 1091.4
20260509115340 58 193 0.9 0.9 0.00 0.00 0.00 99 1091.5
20260509114837 58 197 0.0 0.0 0.00 0.00 0.00 99 1091.3
20260509114336 58 198 0.0 0.0 0.00 0.00 0.00 99 1091.2
20260509113835 58 198 0.0 0.0 0.00 0.00 0.00 99 1091.4
20260509113331 58 198 0.0 0.0 0.00 0.00 0.00 99 1091.3
20260509112828 58 198 0.0 0.0 0.00 0.00 0.00 99 1091.2
20260509112325 58 198 1.7 1.7 0.00 0.00 0.00 99 1091.1
20260509111822 58 199 0.0 0.0 0.00 0.00 0.00 99 1091.4
20260509111319 57 198 0.0 0.0 0.00 0.00 0.00 99 1091.6
20260509110817 57 199 0.0 0.0 0.00 0.00 0.00 99 1091.3
20260509110313 58 201 0.0 0.9 0.00 0.00 0.00 99 1091.6
20260509105811 58 201 0.0 0.0 0.00 0.00 0.00 99 1091.7
20260509105309 58 201 0.0 0.0 0.00 0.00 0.00 99 1091.3
20260509104805 58 198 0.0 0.9 0.00 0.00 0.00 99 1091.3
20260509104302 58 200 0.9 0.9 0.00 0.00 0.00 99 1091.3
20260509103800 58 206 0.9 0.9 0.00 0.00 0.00 99 1091.6
20260509103257 58 200 0.9 0.9 0.00 0.00 0.00 99 1091.5
20260509102755 58 142 0.9 0.9 0.00 0.00 0.00 99 1091.9
20260509102253 59 142 0.0 0.9 0.00 0.00 0.00 99 1091.2
20260509101749 60 141 0.0 0.0 0.00 0.00 0.00 99 1091.4
20260509101245 59 143 0.0 0.0 0.00 0.00 0.00 99 1091.3
20260509100742 59 144 0.0 0.9 0.00 0.00 0.00 99 1090.9
20260509100240 60 134 0.0 0.9 0.00 0.00 0.00 99 1091.0
20260509095736 59 144 0.0 0.9 0.00 0.00 0.00 99 1091.4
20260509095233 60 156 0.0 0.0 0.00 0.00 0.00 99 1091.2
20260509094731 59 158 0.0 0.0 0.00 0.00 0.00 99 1091.1
20260509094227 59 159 0.0 0.0 0.00 0.00 0.00 99 1090.6
20260509093725 59 158 0.0 0.0 0.00 0.00 0.00 99 1090.8
20260509093222 59 158 0.0 0.0 0.00 0.00 0.00 99 1090.9
20260509092720 59 158 0.0 0.0 0.00 0.00 0.00 99 1090.8
20260509092218 59 158 0.0 0.0 0.00 0.00 0.00 99 1090.9
20260509091716 59 158 0.0 0.0 0.00 0.00 0.00 99 1090.9
20260509091212 59 158 0.0 0.0 0.00 0.00 0.00 99 1091.0
20260509090710 60 158 0.0 0.0 0.00 0.00 0.00 99 1091.2
20260509090207 59 158 0.0 0.0 0.00 0.00 0.00 99 1090.9
20260509085705 59 158 0.0 0.0 0.00 0.00 0.00 99 1091.1
20260509085201 59 157 0.0 0.0 0.00 0.00 0.00 99 1091.1
20260509084658 59 159 0.0 0.0 0.00 0.00 0.00 99 1091.1
20260509084154 59 159 0.0 0.0 0.00 0.00 0.00 99 1091.1
20260509083653 59 159 0.0 0.0 0.00 0.00 0.00 99 1091.2
20260509083148 60 159 0.0 0.0 0.00 0.00 0.00 99 1091.3
20260509082646 60 159 0.0 0.0 0.00 0.00 0.00 99 1091.0
20260509082142 60 159 0.0 0.0 0.00 0.00 0.00 99 1091.3
20260509081639 60 159 0.0 0.9 0.00 0.00 0.00 99 1091.4
20260509081137 61 159 0.0 0.0 0.00 0.00 0.00 98 1091.4
20260509080635 61 159 0.0 0.0 0.00 0.00 0.00 98 1091.2
20260509080132 62 158 0.0 0.0 0.00 0.00 0.00 98 1091.5
20260509075630 62 177 0.0 0.0 0.00 0.00 0.00 98 1091.2
20260509075128 62 186 1.7 2.6 0.00 0.00 0.00 98 1090.9
20260509074624 62 192 0.0 0.0 0.00 0.00 0.00 98 1091.1
20260509074121 62 159 1.7 2.6 0.00 0.00 0.00 98 1090.9
20260509073618 62 197 2.6 2.6 0.00 0.00 0.00 98 1090.6
20260509073114 62 172 3.5 5.2 0.00 0.00 0.00 98 1090.9
20260509072611 62 181 3.5 3.5 0.00 0.00 0.00 98 1090.7
20260509072108 61 182 1.7 5.2 0.00 0.00 0.00 98 1090.8
20260509071604 61 167 0.9 1.7 0.00 0.00 0.00 98 1090.6
20260509071102 61 175 0.0 0.0 0.00 0.00 0.00 98 1090.3
20260509070559 61 173 1.7 1.7 0.00 0.00 0.00 99 1090.4
20260509070055 61 186 0.9 0.9 0.00 0.00 0.00 99 1090.1
20260509065550 61 175 0.0 0.9 0.00 0.00 0.00 99 1090.2
20260509065047 61 178 0.9 1.7 0.00 0.00 0.00 99 1090.4
20260509064544 61 179 0.0 0.9 0.00 0.00 0.00 99 1090.2
20260509064042 61 183 1.7 1.7 0.00 0.00 0.00 98 1090.6
20260509063537 61 181 0.0 0.9 0.00 0.00 0.00 98 1090.2
20260509063035 61 181 1.7 1.7 0.00 0.00 0.00 98 1090.2
20260509062532 61 183 0.9 0.9 0.00 0.00 0.00 98 1090.4
20260509062030 61 181 0.9 1.7 0.00 0.00 0.00 98 1090.4
20260509061526 61 184 0.9 0.9 0.00 0.00 0.00 98 1090.4
20260509061024 61 175 0.9 1.7 0.00 0.00 0.00 98 1090.3
20260509060521 61 175 1.7 2.6 0.00 0.00 0.00 99 1090.0
20260509060017 61 177 1.7 2.6 0.00 0.00 0.00 99 1090.1
20260509055512 61 180 0.9 0.9 0.00 0.00 0.00 99 1089.9
20260509055009 61 182 0.9 0.9 0.00 0.00 0.00 99 1089.9
20260509054505 61 183 0.9 0.9 0.00 0.00 0.00 99 1089.9
20260509054004 61 195 1.7 2.6 0.00 0.00 0.00 99 1090.2
20260509053501 61 206 1.7 1.7 0.00 0.00 0.00 99 1090.0
20260509052958 61 213 1.7 1.7 0.00 0.00 0.00 99 1090.0
20260509052456 61 246 0.9 1.7 0.00 0.00 0.00 98 1090.1
20260509051954 62 246 0.9 0.9 0.00 0.00 0.00 98 1090.0
20260509051451 62 246 0.0 0.0 0.00 0.00 0.00 98 1090.0
20260509050948 62 246 0.0 0.0 0.00 0.00 0.00 98 1090.0
20260509050444 62 246 0.0 0.0 0.00 0.00 0.00 98 1089.7
20260509045941 62 246 0.0 0.0 0.00 0.01 0.01 99 1089.9
20260509045439 62 246 0.0 0.0 0.00 0.01 0.01 98 1089.9